{"data":{"norad_id":50186,"epoch":"2026-09-20T03:05:51.859680Z","epoch_age_seconds":77272,"freshness":"FRESH","line1":"1 50186U 21125AG  26263.12907245  .00003191  00000+0  11450-3 0  9997","line2":"2 50186  53.1587  92.5654 0001386  74.8557 285.2598 15.31712917265993","mean_motion":15.31712917,"eccentricity":0.0001386,"inclination_deg":53.1587,"raan_deg":92.5654,"arg_perigee_deg":74.8557,"mean_anomaly_deg":285.2598,"bstar":0.0001145,"rev_number":26599,"period_min":94.012395143887,"perigee_km":469.75224157659,"apogee_km":471.65073960618,"semimajor_km":6848.8384905914,"source":"CELESTRAK","updated_at":"2026-09-20T09:00:39.417773Z"}}